Dewpoint
53 52 53 54 55 54 55 55 54 55 55 55 55 55 55 56 56 56 57 57 57 57 57 57 57 57 46 39 39 45 51 51 49 50 45 44 41 40 38 38 39 37 35 34 36 36 36
52 53 53 54 54 55 55 55 54 55 55 55 55 55 55 56 56 56 56 56 56 56 57 57 57 54 42 35 43 45 46 48 48 47 45 44 42 42 40 39 38 38 39 36 36 36 36
54 52 53 54 54 55 55 55 55 55 55 55 55 55 54 56 56 56 56 56 56 56 56 56 56 43 41 36 42 45 46 47 48 47 44 45 45 43 41 38 39 39 37 36 35 35 36
53 53 53 53 54 54 55 55 55 55 55 55 55 54 54 55 56 56 56 56 55 55 56 56 54 43 37 42 44 43 44 46 47 46 46 46 46 44 41 39 38 36 35 32 34 35 35
51 51 53 53 53 54 55 55 55 55 55 55 55 55 55 55 55 56 55 55 55 55 53 53 46 40 32 45 39 39 43 43 45 46 47 44 44 41 39 37 33 34 32 32 32 35 35
53 53 53 53 53 54 54 55 55 55 55 55 55 55 55 55 55 55 55 54 53 50 44 41 37 37 35 31 37 38 41 44 43 44 44 44 41 38 38 35 30 31 29 30 31 33 33
52 53 53 53 53 53 54 55 55 55 55 55 54 55 55 55 55 55 49 41 36 35 36 31 30 30 31 36 39 39 40 41 42 40 35 35 35 28 29 31 32 33 32 29 30 32 31
52 51 53 53 53 53 54 55 55 55 55 55 55 55 55 55 54 52 45 32 39 41 28 30 34 35 35 37 33 35 41 35 33 34 32 31 29 29 31 31 32 31 30 30 29 33 33
51 51 51 52 52 52 54 54 55 55 55 55 55 55 55 55 54 46 39 41 46 43 32 29 32 30 33 36 32 31 35 33 33 30 27 29 28 29 28 29 26 26 25 26 25 30 34
50 52 51 51 53 53 53 54 54 55 56 55 55 54 55 53 46 43 38 44 46 42 35 25 26 32 34 35 32 33 36 34 31 29 28 28 28 27 25 25 26 25 27 26 26 27 30
50 51 52 53 53 53 53 53 54 55 56 55 54 54 54 49 44 40 44 44 45 42 36 22 25 34 33 32 31 32 36 34 29 26 28 24 26 25 25 23 26 24 28 28 28 28 31
50 50 52 52 53 52 53 53 53 55 55 55 54 53 52 46 43 45 45 44 42 38 35 21 27 29 29 29 27 29 31 33 31 29 27 27 27 28 26 27 27 28 27 26 28 26 28
52 53 52 53 53 53 53 54 54 54 55 55 54 52 48 43 40 45 45 43 40 39 23 19 23 26 27 26 25 27 26 23 24 34 28 25 24 26 29 26 28 26 24 30 23 26 18
55 55 55 54 54 54 54 54 54 54 55 55 54 51 48 43 46 45 45 36 33 24 16 26 27 26 25 24 24 25 25 23 28 25 27 30 30 20 27 25 24 25 25 26 16 15 17
56 56 55 55 55 54 54 54 54 54 54 54 53 48 47 47 48 46 40 40 42 20 22 23 23 21 19 22 22 20 22 22 21 24 22 23 18 23 26 27 28 23 24 23 21 21 25
54 56 56 56 56 55 55 54 54 54 54 54 44 45 45 47 46 44 37 37 25 24 28 27 20 21 17 17 19 18 17 23 24 26 28 23 18 21 23 27 30 27 25 23 24 19 16
50 52 53 56 56 56 55 55 54 54 54 53 45 40 45 47 46 39 39 34 25 28 29 26 23 21 19 19 19 16 15 24 26 25 28 25 22 19 21 21 20 22 20 19 21 20 17
48 49 50 52 53 56 55 55 54 54 54 50 44 40 46 47 38 36 32 26 32 31 32 31 30 25 21 21 19 18 17 18 27 26 21 25 22 20 15 22 25 24 20 18 17 14 14
47 47 47 48 50 52 54 55 54 53 53 48 40 41 46 45 34 34 30 26 31 30 31 30 29 30 27 23 20 20 20 27 29 27 21 22 19 19 17 22 24 24 20 20 19 19 18
45 46 46 47 47 48 50 52 54 53 52 49 41 39 39 40 38 30 27 25 28 33 30 30 28 30 28 25 24 22 22 25 31 29 31 27 21 16 16 16 17 17 18 19 20 21 15
43 44 45 45 45 46 47 49 52 53 53 48 41 33 37 36 35 34 31 28 27 27 31 31 29 28 26 22 22 22 24 23 30 33 30 26 23 25 22 21 20 21 21 20 20 20 16
43 43 43 44 44 45 46 47 49 51 53 47 38 34 35 32 31 33 33 29 27 26 30 28 28 27 26 23 21 21 22 22 22 30 28 28 25 24 22 21 21 21 21 21 20 20 19
40 42 42 42 43 45 44 44 45 47 52 46 43 41 38 34 29 29 29 28 29 30 29 27 29 27 26 26 26 25 25 24 25 24 26 26 26 24 20 23 21 20 18 21 21 20 20
41 44 43 43 44 45 45 44 44 45 45 48 47 41 34 28 24 25 25 28 30 31 28 28 28 27 29 32 32 31 29 29 28 27 27 25 25 25 25 25 22 21 23 23 21 20 21
40 41 42 41 41 41 42 44 45 44 45 45 47 45 38 31 26 23 24 26 29 30 30 29 29 30 32 31 27 23 22 24 26 28 28 28 26 24 23 22 21 20 21 21 21 19 22
40 40 40 40 40 39 41 43 44 45 47 46 45 49 45 38 30 26 22 26 29 26 28 30 34 33 33 29 26 23 21 19 22 27 29 29 28 25 24 22 17 19 21 21 21 18 24
39 39 40 41 40 39 40 42 44 45 46 45 46 47 46 40 38 28 27 27 29 28 27 31 33 32 33 29 26 23 22 20 19 22 26 27 27 25 25 28 25 24 23 23 17 21 26
38 39 41 40 39 38 39 40 41 44 45 44 47 47 46 42 40 36 34 31 31 31 28 31 30 32 31 28 26 25 22 21 21 21 25 25 26 26 26 29 25 29 24 23 25 29 29
40 39 40 40 39 38 39 39 41 42 44 45 45 47 48 44 41 41 38 35 33 32 32 33 30 31 31 31 29 27 24 23 21 20 25 22 24 27 28 28 28 31 31 29 30 30 31
Lifted_Index
10 10 10 10 9 9 10 10 10 10 10 9 9 10 9 9 9 8 8 8 8 8 8 8 9 10 9 8 7 6 4 3 2 2 2 2 2 2 2 2 1 1 1 1 1 2 2
10 10 10 10 10 10 10 10 10 10 10 9 9 10 10 9 9 9 8 8 8 8 8 8 9 10 9 8 8 6 4 3 2 2 2 2 2 2 2 2 1 1 1 1 1 1 1
10 10 10 10 10 10 10 10 10 10 9 9 9 10 10 9 9 9 9 8 8 8 8 8 9 9 9 8 8 6 4 3 2 2 2 2 2 2 2 2 1 1 1 1 1 1 1
10 10 10 10 10 10 10 10 10 9 9 9 9 10 10 10 9 9 9 9 8 8 8 9 9 9 8 8 8 7 5 3 3 2 2 2 2 2 2 2 1 1 0 0 1 1 1
10 10 10 10 10 10 10 10 9 9 9 10 10 10 10 9 9 9 9 9 9 9 9 9 9 9 8 8 8 7 6 4 3 2 2 2 2 2 2 1 1 0 0 0 0 0 0
10 10 10 10 10 10 10 9 9 9 9 10 10 9 9 9 9 9 9 9 9 9 10 10 9 9 8 8 8 7 6 5 3 3 2 2 2 1 1 1 0 0 0 0 -0 0 0
10 10 10 10 10 10 9 9 9 9 9 9 9 9 9 9 9 10 10 10 9 9 9 9 9 9 8 8 8 7 6 5 4 3 2 2 1 1 1 1 1 0 0 -0 -0 -0 0
10 10 10 10 10 10 9 9 9 9 9 9 9 9 9 9 9 10 10 10 9 9 9 9 9 9 9 8 7 7 6 6 5 3 3 2 2 2 2 1 1 1 0 -0 -0 -0 -0
10 10 10 10 10 9 9 9 9 8 8 8 9 9 9 9 10 10 10 10 10 9 8 8 8 8 8 8 7 7 6 6 5 4 3 3 2 2 2 2 1 1 0 0 0 0 -0
10 10 10 9 9 9 9 9 8 8 8 8 8 9 9 10 9 9 9 9 9 8 6 6 8 8 8 8 7 7 7 6 5 4 4 3 3 3 2 2 1 1 1 1 1 0 -0
10 9 9 9 9 9 9 9 8 8 8 8 8 8 9 9 9 9 9 10 9 6 4 5 7 7 8 7 7 7 7 6 6 5 4 4 3 3 2 2 1 1 1 0 0 -0 -0
9 9 9 9 9 9 9 8 8 8 7 7 7 8 8 8 9 9 9 9 7 4 3 4 6 6 6 7 7 7 7 7 6 5 4 4 4 4 3 2 2 1 0 -0 -0 -0 -0
8 8 8 8 8 8 8 8 8 8 7 7 7 7 7 8 8 9 9 7 5 3 4 4 5 5 5 5 6 6 6 6 6 5 4 3 3 4 4 3 2 2 1 -0 -0 -0 -0
6 6 7 7 8 8 8 8 8 8 7 7 7 7 7 7 8 8 7 5 3 3 4 4 4 4 4 4 5 5 5 5 6 5 4 3 3 4 4 4 3 2 2 1 0 0 0
4 5 5 6 6 7 7 7 7 7 7 7 7 7 6 7 8 7 5 3 3 4 4 4 4 4 3 4 4 4 4 5 6 6 5 4 3 4 5 5 4 3 3 2 1 1 0
5 5 5 5 5 5 6 6 7 7 7 7 7 7 6 7 7 6 4 3 4 4 4 4 4 3 3 3 3 3 4 5 6 6 6 5 4 4 5 5 4 4 4 3 2 1 0
7 7 6 5 5 5 5 6 6 6 7 7 7 6 6 6 6 5 4 3 4 4 4 4 4 4 3 3 3 3 3 4 5 6 6 5 4 4 4 4 4 4 4 4 3 2 1
9 9 8 7 5 5 5 5 5 6 6 6 6 5 5 5 5 4 4 4 4 4 4 4 4 4 4 4 3 3 4 4 5 6 5 5 4 3 3 4 4 4 4 4 3 2 2
11 11 10 9 8 7 6 5 5 5 6 6 5 5 5 5 4 4 4 4 4 4 4 4 4 4 4 4 4 4 4 4 5 5 5 5 4 3 3 3 4 3 3 3 3 3 2
13 13 12 11 11 10 8 7 6 5 6 6 5 5 5 5 4 4 4 4 4 4 4 4 4 4 4 4 4 4 4 4 5 5 6 5 4 3 2 3 3 3 3 3 3 3 3
14 14 14 13 13 12 11 9 7 6 6 6 6 6 5 4 4 4 4 4 3 3 4 4 4 4 3 3 4 4 4 4 4 5 5 5 4 3 3 3 3 3 3 3 3 3 3
15 15 15 14 14 13 13 11 9 7 6 6 6 6 6 5 5 5 4 4 4 3 3 3 3 3 3 3 3 3 4 4 4 4 4 4 4 4 3 3 3 2 3 3 4 4 4
15 15 15 14 14 13 13 12 11 9 7 6 6 7 7 7 6 6 5 4 4 4 3 3 3 3 3 3 3 3 3 3 4 4 4 3 3 3 3 3 2 2 3 4 4 4 4
15 15 14 14 14 13 13 13 12 11 9 7 6 6 7 7 7 7 6 5 4 4 3 3 3 3 3 3 3 3 3 3 3 3 3 3 3 3 3 2 2 3 4 4 4 4 5
15 15 14 14 14 14 13 13 12 12 10 8 7 6 6 6 7 8 7 6 5 4 4 3 3 3 3 2 2 2 3 3 3 3 3 3 2 2 2 2 2 3 4 5 4 5 5
15 15 14 14 15 15 14 13 12 12 11 9 8 7 5 5 6 7 7 7 6 5 4 3 3 3 3 2 2 2 2 3 3 3 3 3 2 2 2 2 2 3 5 5 4 4 5
14 14 14 14 14 14 14 13 12 12 11 9 8 7 6 5 5 6 7 7 6 5 4 4 3 3 3 2 2 2 2 2 3 3 3 3 2 2 2 2 2 4 5 5 4 5 6
13 13 13 13 13 14 14 13 13 12 11 9 8 7 6 5 6 6 7 7 6 5 4 4 3 3 3 2 2 2 2 2 2 3 3 3 2 2 2 2 3 4 4 4 4 5 6
13 13 12 13 13 13 13 13 13 12 10 8 7 7 6 6 6 6 6 7 7 6 5 4 3 3 2 2 2 2 2 2 2 2 3 3 3 2 2 2 3 3 4 4 5 5 6